• In Russia
  • List of Countries
  • For 7 days
  • Water Temperature
  • Weather Map
  • Weather Widgets
  • user-avatar
    Login

    Hourly Weather Abovyan

    Today, 5 April, Sunday

    Time Temperature Precipitation Wind Pressure Humidity
    00:00 +7°C° 0 mm 1 mps 674 mmHg 64%
    01:00 +7°C° 0 mm 1 mps 674 mmHg 64%
    02:00 +7°C° 0 mm 1 mps 674 mmHg 64%
    03:00 +6°C° 0 mm 0 mps 674 mmHg 65%
    04:00 +6°C° 0 mm 1 mps 674 mmHg 65%
    05:00 +6°C° 0 mm 1 mps 674 mmHg 65%
    06:00 +6°C° 0 mm 1 mps 674 mmHg 65%
    07:00 +8°C° 0 mm 1 mps 674 mmHg 61%
    08:00 +10°C° 0 mm 1 mps 674 mmHg 58%
    09:00 +11°C° 0 mm 1 mps 675 mmHg 57%
    10:00 +12°C° 0 mm 1 mps 675 mmHg 55%
    11:00 +13°C° 0 mm 2 mps 675 mmHg 53%
    12:00 +14°C° 0 mm 2 mps 674 mmHg 52%
    13:00 +15°C° 0 mm 2 mps 674 mmHg 49%
    14:00 +16°C° 0 mm 2 mps 674 mmHg 46%
    15:00 +16°C° 0 mm 2 mps 673 mmHg 43%
    16:00 +16°C° 0 mm 2 mps 673 mmHg 44%
    17:00 +15°C° 0 mm 1 mps 673 mmHg 46%
    18:00 +15°C° 0 mm 1 mps 673 mmHg 47%
    19:00 +14°C° 0 mm 1 mps 673 mmHg 48%
    20:00 +14°C° 0 mm 1 mps 673 mmHg 49%
    21:00 +13°C° 0 mm 1 mps 673 mmHg 51%
    22:00 +13°C° 0 mm 1 mps 673 mmHg 53%
    23:00 +13°C° 0 mm 1 mps 672 mmHg 55%

    Tomorrow, 6 April, Monday

    Time Temperature Precipitation Wind Pressure Humidity
    00:00 +13°C° 0 mm 1 mps 672 mmHg 57%
    01:00 +12°C° 0.2 mm 1 mps 672 mmHg 60%
    02:00 +12°C° 0.2 mm 1 mps 671 mmHg 64%
    03:00 +11°C° 0.2 mm 1 mps 671 mmHg 68%
    04:00 +11°C° 0.1 mm 1 mps 671 mmHg 68%
    05:00 +12°C° 0.1 mm 2 mps 671 mmHg 68%
    06:00 +12°C° 0.1 mm 2 mps 671 mmHg 68%
    07:00 +12°C° 0.2 mm 2 mps 671 mmHg 66%
    08:00 +13°C° 0.2 mm 2 mps 672 mmHg 64%
    09:00 +14°C° 0.2 mm 2 mps 672 mmHg 62%
    10:00 +13°C° 1 mm 2 mps 672 mmHg 67%
    11:00 +13°C° 1 mm 2 mps 671 mmHg 73%
    12:00 +12°C° 1 mm 2 mps 671 mmHg 78%
    13:00 +12°C° 1.3 mm 2 mps 671 mmHg 77%
    14:00 +12°C° 1.3 mm 1 mps 671 mmHg 76%
    15:00 +12°C° 1.3 mm 1 mps 671 mmHg 75%
    16:00 +12°C° 0.1 mm 1 mps 671 mmHg 75%
    17:00 +12°C° 0.1 mm 1 mps 671 mmHg 74%
    18:00 +11°C° 0.1 mm 0 mps 671 mmHg 74%
    19:00 +11°C° 0 mm 0 mps 671 mmHg 75%
    20:00 +12°C° 0 mm 1 mps 671 mmHg 77%
    21:00 +11°C° 0 mm 1 mps 671 mmHg 78%
    22:00 +11°C° 0 mm 1 mps 671 mmHg 79%
    23:00 +10°C° 0 mm 0 mps 671 mmHg 80%

    Day after tomorrow, 7 April, Tuesday

    Time Temperature Precipitation Wind Pressure Humidity
    00:00 +10°C° 0 mm 0 mps 671 mmHg 81%
    01:00 +11°C° 0.2 mm 1 mps 671 mmHg 82%
    02:00 +10°C° 0.2 mm 1 mps 671 mmHg 83%
    03:00 +9°C° 0.2 mm 2 mps 671 mmHg 83%
    04:00 +9°C° 0.3 mm 2 mps 671 mmHg 82%
    05:00 +8°C° 0.3 mm 2 mps 671 mmHg 81%
    06:00 +8°C° 0.3 mm 2 mps 671 mmHg 79%
    07:00 +8°C° 0.2 mm 2 mps 672 mmHg 76%
    08:00 +9°C° 0.2 mm 2 mps 672 mmHg 74%
    09:00 +9°C° 0.2 mm 2 mps 672 mmHg 71%
    10:00 +10°C° 0 mm 2 mps 672 mmHg 68%
    11:00 +10°C° 0 mm 2 mps 673 mmHg 64%
    12:00 +12°C° 0 mm 2 mps 673 mmHg 61%
    13:00 +12°C° 0 mm 2 mps 673 mmHg 59%
    14:00 +12°C° 0 mm 3 mps 673 mmHg 57%
    15:00 +12°C° 0 mm 3 mps 673 mmHg 54%
    16:00 +11°C° 0 mm 3 mps 673 mmHg 56%
    17:00 +10°C° 0 mm 4 mps 673 mmHg 58%
    18:00 +8°C° 0 mm 4 mps 673 mmHg 60%
    19:00 +8°C° 0 mm 4 mps 673 mmHg 61%
    20:00 +8°C° 0 mm 3 mps 674 mmHg 63%
    21:00 +7°C° 0 mm 3 mps 674 mmHg 64%
    22:00 +7°C° 0 mm 3 mps 674 mmHg 64%
    23:00 +5°C° 0 mm 3 mps 674 mmHg 64%

    8 April, Wednesday

    Time Temperature Precipitation Wind Pressure Humidity
    00:00 +6°C° 0 mm 2 mps 675 mmHg 64%
    01:00 +5°C° 0 mm 2 mps 675 mmHg 64%
    02:00 +5°C° 0 mm 2 mps 675 mmHg 63%
    03:00 +4°C° 0 mm 2 mps 675 mmHg 63%
    04:00 +4°C° 0 mm 2 mps 675 mmHg 64%
    05:00 +4°C° 0 mm 2 mps 675 mmHg 64%
    06:00 +4°C° 0 mm 2 mps 676 mmHg 64%
    07:00 +5°C° 0 mm 2 mps 676 mmHg 61%
    08:00 +6°C° 0 mm 2 mps 676 mmHg 58%
    09:00 +7°C° 0 mm 2 mps 676 mmHg 54%
    10:00 +8°C° 0 mm 2 mps 676 mmHg 53%
    11:00 +9°C° 0 mm 2 mps 675 mmHg 52%
    12:00 +10°C° 0 mm 2 mps 675 mmHg 51%
    13:00 +10°C° 0 mm 2 mps 675 mmHg 49%
    14:00 +12°C° 0 mm 2 mps 674 mmHg 47%
    15:00 +13°C° 0 mm 2 mps 674 mmHg 46%
    16:00 +12°C° 0 mm 2 mps 674 mmHg 49%
    17:00 +10°C° 0 mm 2 mps 673 mmHg 51%
    18:00 +10°C° 0 mm 2 mps 673 mmHg 54%
    19:00 +9°C° 0 mm 2 mps 673 mmHg 56%
    20:00 +8°C° 0 mm 3 mps 673 mmHg 58%
    21:00 +7°C° 0 mm 3 mps 673 mmHg 60%
    22:00 +7°C° 0 mm 3 mps 673 mmHg 61%
    23:00 +7°C° 0 mm 2 mps 673 mmHg 62%

    9 April, Thursday

    Time Temperature Precipitation Wind Pressure Humidity
    00:00 +6°C° 0 mm 2 mps 673 mmHg 63%
    01:00 +6°C° 0 mm 2 mps 672 mmHg 66%
    02:00 +6°C° 0 mm 1 mps 671 mmHg 68%
    03:00 +6°C° 0 mm 1 mps 671 mmHg 70%
    04:00 +6°C° 0 mm 1 mps 670 mmHg 71%
    05:00 +6°C° 0 mm 1 mps 670 mmHg 71%
    06:00 +6°C° 0 mm 1 mps 670 mmHg 72%
    07:00 +7°C° 0 mm 1 mps 669 mmHg 68%
    08:00 +8°C° 0 mm 1 mps 669 mmHg 64%
    09:00 +8°C° 0 mm 2 mps 669 mmHg 60%
    10:00 +10°C° 0 mm 2 mps 669 mmHg 57%
    11:00 +12°C° 0 mm 2 mps 668 mmHg 55%
    12:00 +13°C° 0 mm 2 mps 668 mmHg 52%
    13:00 +14°C° 0 mm 2 mps 668 mmHg 50%
    14:00 +14°C° 0 mm 2 mps 667 mmHg 49%
    15:00 +15°C° 0 mm 1 mps 667 mmHg 47%
    16:00 +15°C° 0 mm 1 mps 667 mmHg 49%
    17:00 +14°C° 0 mm 1 mps 666 mmHg 50%
    18:00 +14°C° 0 mm 1 mps 666 mmHg 52%
    19:00 +13°C° 0 mm 2 mps 666 mmHg 56%
    20:00 +12°C° 0 mm 2 mps 666 mmHg 60%
    21:00 +10°C° 0 mm 2 mps 667 mmHg 63%
    22:00 +9°C° 0 mm 2 mps 667 mmHg 64%
    23:00 +9°C° 0 mm 2 mps 666 mmHg 65%

    10 April, Friday

    Time Temperature Precipitation Wind Pressure Humidity
    00:00 +8°C° 0 mm 2 mps 666 mmHg 67%
    01:00 +8°C° 0 mm 2 mps 666 mmHg 67%
    02:00 +8°C° 0 mm 2 mps 666 mmHg 68%
    03:00 +8°C° 0 mm 2 mps 665 mmHg 69%
    04:00 +8°C° 0.1 mm 2 mps 665 mmHg 70%
    05:00 +9°C° 0.1 mm 1 mps 666 mmHg 71%
    06:00 +9°C° 0.1 mm 1 mps 666 mmHg 72%
    07:00 +9°C° 0.2 mm 1 mps 666 mmHg 72%
    08:00 +10°C° 0.2 mm 1 mps 665 mmHg 72%
    09:00 +10°C° 0.2 mm 1 mps 665 mmHg 73%
    10:00 +11°C° 0.1 mm 1 mps 665 mmHg 70%
    11:00 +12°C° 0.1 mm 1 mps 665 mmHg 68%
    12:00 +13°C° 0.1 mm 2 mps 665 mmHg 66%
    13:00 +13°C° 0.1 mm 2 mps 665 mmHg 64%
    14:00 +14°C° 0.1 mm 2 mps 665 mmHg 61%
    15:00 +14°C° 0.1 mm 2 mps 665 mmHg 59%
    16:00 +14°C° 0.2 mm 2 mps 665 mmHg 59%
    17:00 +14°C° 0.2 mm 2 mps 665 mmHg 60%
    18:00 +12°C° 0.2 mm 3 mps 665 mmHg 61%
    19:00 +11°C° 0.6 mm 3 mps 665 mmHg 66%
    20:00 +10°C° 0.6 mm 2 mps 665 mmHg 71%
    21:00 +9°C° 0.6 mm 2 mps 666 mmHg 76%
    22:00 +9°C° 1.9 mm 3 mps 665 mmHg 79%
    23:00 +8°C° 1.9 mm 3 mps 665 mmHg 82%
    Show more